Palm Springs, CA

2:21 AM PDT on June 19, 2018 (GMT -0700)
Palm Springs International

Weather History for KPSP - October, 2017

Change the Weather History Date:

Tuesday, October 10, 2017

  Actual Average Record
Temperature  
Mean Temperature 75 °F 78 °F  
Max Temperature 89 °F 91 °F 108 °F (1991)
Min Temperature 61 °F 64 °F 45 °F (1930)
Degree Days  
Heating Degree Days 0 0  
Month to date heating degree days 0 0  
Since 1 July heating degree days 0 0  
Cooling Degree Days 10 13  
Month to date cooling degree days 149 143  
Year to date cooling degree days 4662 3869  
Growing Degree Days 24 (Base 50)    
Moisture  
Dew Point 17 °F    
Average Humidity 15    
Maximum Humidity 23    
Minimum Humidity 6    
Precipitation  
Precipitation 0.00 in 0.01 in 1.22 in (1932)
Month to date precipitation 0.00 0.09  
Year to date precipitation 7.17 3.98  
Sea Level Pressure  
Sea Level Pressure 29.95 in    
Wind  
Wind Speed 4 mph (NW)    
Max Wind Speed 10 mph    
Max Gust Speed 14 mph    
Visibility 10 miles    
Events      
T = Trace of Precipitation, MM = Missing Value Source: NWS Daily Summary

Daily Weather History Graph

Daily Weather History Graph

Search for Another Location

Airport or City:

Astronomy

Oct. 10, 2017 Rise Set
Actual Time 6:47 AM PDT 6:17 PM PDT
Civil Twilight 6:22 AM PDT 6:42 PM PDT
Nautical Twilight 5:53 AM PDT 7:11 PM PDT
Astronomical Twilight 5:24 AM PDT 7:40 PM PDT
Moon 10:36 PM PDT (10/10) 11:57 AM PDT (10/10)
Length of Visible Light 12h 20m
Length of Day
11h 30m
Waning Gibbous, 70% of the Moon is Illuminated
Oct 10
Waning Gibbous
Oct 12
Last Quarter
Oct 19
New
Oct 27
First Quarter
Nov 3
Full

Hourly Weather History & Observations

Time (PDT) Temp. Dew Point Humidity Pressure Visibility Wind Dir Wind Speed Gust Speed Precip Events Conditions
12:53 AM 71.1 °F 14.0 °F 11% 29.99 in 10.0 mi Calm Calm - N/A   Clear
1:53 AM 70.0 °F 14.0 °F 12% 29.99 in 10.0 mi WNW 4.6 mph - N/A   Clear
2:53 AM 66.0 °F 14.0 °F 13% 29.98 in 10.0 mi NW 5.8 mph - N/A   Clear
3:53 AM 68.0 °F 12.9 °F 12% 29.97 in 10.0 mi West 5.8 mph - N/A   Clear
4:53 AM 64.0 °F 18.0 °F 17% 29.98 in 10.0 mi NNW 3.5 mph - N/A   Clear
5:53 AM 61.0 °F 23.0 °F 23% 29.99 in 10.0 mi NW 6.9 mph - N/A   Clear
6:53 AM 63.0 °F 17.1 °F 17% 30.00 in 10.0 mi West 4.6 mph - N/A   Clear
7:53 AM 66.0 °F 18.0 °F 16% 30.02 in 10.0 mi NW 4.6 mph - N/A   Clear
8:53 AM 73.9 °F 21.0 °F 14% 30.03 in 10.0 mi Calm Calm - N/A   Clear
9:53 AM 78.1 °F 14.0 °F 9% 30.02 in 10.0 mi Calm Calm - N/A   Clear
10:53 AM 82.0 °F 12.0 °F 7% 30.01 in 10.0 mi Calm Calm - N/A   Clear
11:53 AM 84.0 °F 12.0 °F 7% 29.99 in 10.0 mi Variable 5.8 mph - N/A   Clear
12:53 PM 86.0 °F 14.0 °F 7% 29.96 in 10.0 mi ESE 9.2 mph - N/A   Clear
1:53 PM 87.1 °F 12.9 °F 6% 29.93 in 10.0 mi SSE 3.5 mph - N/A   Clear
2:53 PM 88.0 °F 12.0 °F 6% 29.90 in 10.0 mi Variable 6.9 mph - N/A   Clear
3:53 PM 88.0 °F 12.9 °F 6% 29.88 in 10.0 mi Variable 5.8 mph - N/A   Clear
4:53 PM 87.1 °F 14.0 °F 7% 29.86 in 10.0 mi Variable 3.5 mph - N/A   Clear
5:53 PM 84.0 °F 17.1 °F 8% 29.87 in 10.0 mi Calm Calm - N/A   Clear
6:53 PM 80.1 °F 27.0 °F 14% 29.88 in 10.0 mi Calm Calm - N/A   Clear
7:53 PM 75.0 °F 28.0 °F 18% 29.89 in 10.0 mi North 6.9 mph - N/A   Clear
8:53 PM 75.0 °F 21.0 °F 13% 29.89 in 10.0 mi NNW 4.6 mph - N/A   Clear
9:53 PM 73.9 °F 23.0 °F 15% 29.90 in 10.0 mi NNW 5.8 mph - N/A   Clear
10:53 PM 72.0 °F 21.0 °F 15% 29.89 in 10.0 mi NNW 9.2 mph - N/A   Clear
11:53 PM 70.0 °F 19.9 °F 15% 29.87 in 10.0 mi NW 6.9 mph - N/A   Clear